Weather History for Carlsbad, NM

Change the Weather History Date:

Friday, January 31, 2014

  Actual Average Record
Temperature  
Mean Temperature 65 °F -  
Max Temperature 73 °F 58 °F 79 °F (1963)
Min Temperature 57 °F 31 °F 10 °F (1951)
Growing Degree Days 15 (Base 50)    
Moisture  
Dew Point 26 °F    
Average Humidity 22    
Maximum Humidity 33    
Minimum Humidity 16    
Precipitation  
Precipitation 0.00 in - - ()
Sea Level Pressure  
Sea Level Pressure 29.63 in    
Wind  
Wind Speed 13 mph (SW)    
Max Wind Speed 21 mph    
Max Gust Speed 28 mph    
Visibility 10 miles    
Events      
Averages and records for this station are not official NWS values.
T = Trace of Precipitation, MM = Missing Value Source: NWS Daily Summary

Daily Weather History Graph

Daily Weather History Graph

Search for Another Location

Airport:

Trip Planner

Search our weather history database for the weather conditions in past years. The results will help you decide how hot, cold, wet, or windy it might be!

Date:

Astronomy

Jan. 31, 2014 Rise Set
Actual Time 6:51 AM MST 5:29 PM MST
Civil Twilight 6:26 AM MST 5:55 PM MST
Nautical Twilight 5:56 AM MST 6:24 PM MST
Astronomical Twilight 5:27 AM MST 6:53 PM MST
Moon 7:09 AM MST (1/31) 6:49 PM MST (1/31)
Length of Visible Light 11h 29m
Length of Day
10h 37m
New Moon, 1% of the Moon is Illuminated
Jan 31
New Moon
Feb 6
First Quarter
Feb 14
Full
Feb 22
Last Quarter
Mar 1
New

Hourly Weather History & Observations

Time (MST) Temp. Dew Point Humidity Pressure Visibility Wind Dir Wind Speed Gust Speed Precip Events Conditions
12:53 AM 66.0 °F 24.1 °F 20% 29.63 in 10.0 mi WSW 17.3 mph - N/A   Clear
1:53 AM 66.9 °F 25.0 °F 21% 29.62 in 10.0 mi WSW 18.4 mph 27.6 mph N/A   Clear
2:53 AM 66.9 °F 25.0 °F 21% 29.63 in 10.0 mi WSW 19.6 mph - N/A   Clear
3:53 AM 66.0 °F 26.1 °F 22% 29.64 in 10.0 mi SW 17.3 mph - N/A   Clear
4:53 AM 63.0 °F 26.1 °F 25% 29.65 in 10.0 mi SW 12.7 mph - N/A   Clear
5:53 AM 66.0 °F 26.1 °F 22% 29.68 in 10.0 mi WSW 20.7 mph 26.5 mph N/A   Clear
6:53 AM 64.9 °F 26.1 °F 23% 29.70 in 10.0 mi SW 13.8 mph 24.2 mph N/A   Clear
7:53 AM 64.0 °F 27.0 °F 25% 29.71 in 10.0 mi West 13.8 mph - N/A   Clear
8:53 AM 66.9 °F 26.1 °F 21% 29.71 in 10.0 mi SW 20.7 mph - N/A   Clear
9:53 AM 69.1 °F 25.0 °F 19% 29.73 in 10.0 mi West 10.4 mph - N/A   Clear
10:53 AM 72.0 °F 26.1 °F 18% 29.71 in 10.0 mi SSE 10.4 mph 19.6 mph N/A   Clear
11:53 AM 73.0 °F 24.1 °F 16% 29.67 in 10.0 mi WNW 15.0 mph 21.9 mph N/A   Clear
12:53 PM 73.0 °F 26.1 °F 17% 29.61 in 10.0 mi NW 12.7 mph 23.0 mph N/A   Clear
1:53 PM 73.9 °F 24.1 °F 16% 29.57 in 10.0 mi Calm Calm - N/A   Clear
2:53 PM 73.9 °F 25.0 °F 16% 29.56 in 10.0 mi West 9.2 mph - N/A   Clear
3:53 PM 72.0 °F 25.0 °F 17% 29.56 in 10.0 mi Variable 6.9 mph - N/A   Clear
4:53 PM 71.1 °F 26.1 °F 19% 29.59 in 10.0 mi Calm Calm - N/A   Clear
5:53 PM 64.9 °F 26.1 °F 23% 29.58 in 10.0 mi ENE 5.8 mph - N/A   Clear
6:53 PM 64.9 °F 27.0 °F 24% 29.59 in 10.0 mi SSE 6.9 mph - N/A   Clear
7:53 PM 62.1 °F 27.0 °F 26% 29.62 in 10.0 mi SE 6.9 mph - N/A   Clear
8:53 PM 59.0 °F 28.0 °F 31% 29.63 in 10.0 mi ENE 6.9 mph - N/A   Clear
9:53 PM 57.0 °F 28.0 °F 33% 29.62 in 10.0 mi Variable 4.6 mph - N/A   Clear
10:53 PM 61.0 °F 28.0 °F 29% 29.60 in 10.0 mi Variable 5.8 mph - N/A   Clear
11:53 PM 66.0 °F 28.0 °F 24% 29.59 in 10.0 mi Calm Calm - N/A   Clear